Shungnak AP, Shungnak, AK, AK

7:21 PM AKST on November 20, 2019 (GMT -0900)
Shungnak AP, Shungnak, AK

Weather History for PAGH - September, 2019

Change the Weather History Date:

Sunday, September 22, 2019

  Actual Average (PAFM) Record (PAFM)
Temperature  
Mean Temperature 34 °F -  
Max Temperature 46 °F 41 °F 56 °F (1984)
Min Temperature 21 °F 30 °F 19 °F (1983)
Degree Days  
Heating Degree Days 32    
Moisture  
Dew Point 25 °F    
Average Humidity 88    
Maximum Humidity 100    
Minimum Humidity 50    
Precipitation  
Precipitation 0.00 in - - ()
Sea Level Pressure  
Sea Level Pressure 29.56 in    
Wind  
Wind Speed 5 mph (ESE)    
Max Wind Speed 15 mph    
Max Gust Speed 20 mph    
Visibility 5 miles    
Events Fog    
Averages and records for this station are not official NWS values.
T = Trace of Precipitation, MM = Missing Value Source: NWS Daily Summary

Daily Weather History Graph

Daily Weather History Graph

Search for Another Location

Airport or City:

Astronomy

Sep. 22, 2019 Rise Set
Actual Time 8:10 AM AKDT 8:30 PM AKDT
Civil Twilight 7:17 AM AKDT 9:23 PM AKDT
Nautical Twilight 6:10 AM AKDT 10:29 PM AKDT
Astronomical Twilight 4:49 AM AKDT 11:48 PM AKDT
Moon 10:11 PM AKDT (9/22) 8:32 PM AKDT (9/22)
Length of Visible Light 14h 06m
Length of Day
12h 19m
Last Quarter, 42% of the Moon is Illuminated
Sep 22
Last Quarter
Sep 28
New
Oct 5
First Quarter
Oct 13
Full
Oct 21
Last Quarter

Hourly Weather History & Observations

Time (AKDT) Temp. Windchill Dew Point Humidity Pressure Visibility Wind Dir Wind Speed Gust Speed Precip Events Conditions
1:56 AM 30.0 °F - 28.9 °F 96% 29.60 in 6.0 mi Calm Calm - N/A   Clear
2:00 AM 30.2 °F - 28.4 °F 93% 29.58 in 1.5 mi Calm Calm - N/A   Clear
2:06 AM 30.2 °F - 28.4 °F 93% 29.58 in 0.8 mi Calm Calm - N/A   Clear
2:14 AM 28.4 °F 24.6 °F 26.6 °F 93% 29.58 in 0.8 mi ENE 3.5 mph - N/A   Mist
2:26 AM 26.6 °F 21.2 °F 24.8 °F 93% 29.58 in 0.5 mi East 4.6 mph - N/A Fog Light Freezing Fog
2:56 AM 28.0 °F 21.7 °F 28.0 °F 100% 29.59 in 0.8 mi South 5.8 mph - N/A   Overcast
3:06 AM 28.4 °F 24.6 °F 28.4 °F 100% 29.57 in 1.2 mi South 3.5 mph - N/A   Mostly Cloudy
3:15 AM 28.4 °F - 28.4 °F 100% 29.58 in 0.8 mi Calm Calm - N/A   Overcast
3:24 AM 28.4 °F - 26.6 °F 93% 29.58 in 0.5 mi Calm Calm - N/A Fog Light Freezing Fog
3:31 AM 26.6 °F - 26.6 °F 100% 29.58 in 0.2 mi Calm Calm - N/A Fog Light Freezing Fog
3:49 AM 26.6 °F - 26.6 °F 100% 29.58 in 0.5 mi Calm Calm - N/A Fog Light Freezing Fog
3:56 AM 26.1 °F - 25.0 °F 96% 29.60 in 0.5 mi Calm Calm - N/A Fog Light Freezing Fog
4:39 AM 24.8 °F 20.5 °F 23.0 °F 93% 29.57 in 0.2 mi ESE 3.5 mph - N/A Fog Light Freezing Fog
4:48 AM 24.8 °F 17.9 °F 24.8 °F 100% 29.57 in 0.8 mi ESE 5.8 mph - N/A   Overcast
4:56 AM 25.0 °F 18.1 °F 24.1 °F 96% 29.59 in 0.8 mi SE 5.8 mph - N/A   Overcast
5:09 AM 26.6 °F 21.2 °F 24.8 °F 93% 29.57 in 0.5 mi ESE 4.6 mph - N/A Fog Light Freezing Fog
5:26 AM 24.8 °F 19.1 °F 24.8 °F 100% 29.57 in 0.8 mi ESE 4.6 mph - N/A   Overcast
5:34 AM 24.8 °F 20.5 °F 23.0 °F 93% 29.57 in 0.5 mi ESE 3.5 mph - N/A Fog Light Freezing Fog
5:44 AM 24.8 °F 19.1 °F 23.0 °F 93% 29.57 in 1.0 mi ESE 4.6 mph - N/A   Mist
5:53 AM 24.8 °F 20.5 °F 23.0 °F 93% 29.57 in 0.5 mi East 3.5 mph - N/A Fog Light Freezing Fog
5:56 AM 24.1 °F - 23.0 °F 96% 29.59 in 0.5 mi Calm Calm - N/A Fog Light Freezing Fog
6:07 AM 24.8 °F - 23.0 °F 93% 29.57 in 0.2 mi Calm Calm - N/A Fog Light Freezing Fog
6:15 AM 24.8 °F 19.1 °F 23.0 °F 93% 29.57 in 0.5 mi ESE 4.6 mph - N/A Fog Light Freezing Fog
6:32 AM 23.0 °F 17.0 °F 21.2 °F 93% 29.56 in 0.2 mi East 4.6 mph - N/A Fog Light Freezing Fog
6:40 AM 21.2 °F 12.6 °F 19.4 °F 93% 29.56 in 0.8 mi ESE 6.9 mph - N/A   Mostly Cloudy
6:43 AM 21.2 °F 14.9 °F 21.2 °F 100% 29.56 in 1.5 mi ESE 4.6 mph - N/A   Mostly Cloudy
6:45 AM 23.0 °F 18.4 °F 21.2 °F 93% 29.56 in 4.0 mi ESE 3.5 mph - N/A   Mostly Cloudy
6:54 AM 23.0 °F 17.0 °F 21.2 °F 93% 29.56 in 10.0 mi East 4.6 mph - N/A   Scattered Clouds
6:56 AM 23.0 °F 15.8 °F 21.9 °F 96% 29.58 in 10.0 mi East 5.8 mph - N/A   Partly Cloudy
7:13 AM 23.0 °F 13.9 °F 21.2 °F 93% 29.56 in 5.0 mi East 8.1 mph - N/A   Mostly Cloudy
7:23 AM 24.8 °F 16.1 °F 23.0 °F 93% 29.56 in 2.5 mi ESE 8.1 mph - N/A   Mostly Cloudy
7:30 AM 24.8 °F 16.9 °F 23.0 °F 93% 29.56 in 10.0 mi ESE 6.9 mph - N/A   Mostly Cloudy
7:40 AM 24.8 °F 16.1 °F 21.2 °F 86% 29.56 in 10.0 mi ESE 8.1 mph - N/A   Scattered Clouds
7:56 AM 23.0 °F 12.4 °F 21.9 °F 96% 29.58 in 5.0 mi ESE 10.4 mph - N/A   Scattered Clouds
8:03 AM 23.0 °F 13.1 °F 21.2 °F 93% 29.56 in 4.0 mi ESE 9.2 mph - N/A   Mostly Cloudy
8:10 AM 23.0 °F 13.1 °F 21.2 °F 93% 29.56 in 1.8 mi ESE 9.2 mph - N/A   Mostly Cloudy
8:14 AM 23.0 °F 11.7 °F 21.2 °F 93% 29.56 in 0.8 mi ESE 11.5 mph - N/A   Overcast
8:23 AM 23.0 °F 12.4 °F 21.2 °F 93% 29.55 in 0.5 mi ESE 10.4 mph - N/A Fog Light Freezing Fog
8:34 AM 24.8 °F 14.6 °F 23.0 °F 93% 29.55 in 2.0 mi ESE 10.4 mph - N/A   Overcast
8:43 AM 24.8 °F 14.6 °F 23.0 °F 93% 29.55 in 8.0 mi ESE 10.4 mph - N/A   Mostly Cloudy
8:51 AM 24.8 °F 14.6 °F 23.0 °F 93% 29.56 in 10.0 mi ESE 10.4 mph - N/A   Scattered Clouds
8:56 AM 25.0 °F 15.5 °F 24.1 °F 96% 29.58 in 10.0 mi ESE 9.2 mph - N/A   Partly Cloudy
9:56 AM 26.1 °F 16.8 °F 25.0 °F 96% 29.58 in 10.0 mi East 9.2 mph - N/A   Clear
10:56 AM 30.0 °F 20.5 °F 30.0 °F 100% 29.58 in 10.0 mi ESE 11.5 mph - N/A   Clear
11:56 AM 34.0 °F 25.5 °F 32.0 °F 92% 29.58 in 10.0 mi ESE 11.5 mph - N/A   Clear
12:56 PM 37.9 °F 29.2 °F 30.9 °F 76% 29.57 in 10.0 mi East 15.0 mph - N/A   Clear
1:56 PM 41.0 °F 33.5 °F 30.0 °F 65% 29.56 in 10.0 mi East 13.8 mph - N/A   Mostly Cloudy
2:56 PM 44.1 °F 38.6 °F 28.9 °F 55% 29.56 in 10.0 mi East 10.4 mph 19.6 mph N/A   Mostly Cloudy
3:56 PM 44.1 °F 38.1 °F 28.9 °F 55% 29.55 in 10.0 mi ESE 11.5 mph - N/A   Mostly Cloudy
4:56 PM 46.0 °F 41.4 °F 28.0 °F 50% 29.54 in 10.0 mi ESE 9.2 mph - N/A   Partly Cloudy
5:56 PM 46.0 °F 39.9 °F 30.0 °F 54% 29.53 in 10.0 mi ESE 13.8 mph - N/A   Partly Cloudy
6:56 PM 46.0 °F 39.9 °F 30.0 °F 54% 29.52 in 10.0 mi ESE 13.8 mph - N/A   Partly Cloudy
7:56 PM 43.0 °F 36.8 °F 27.0 °F 53% 29.52 in 10.0 mi East 11.5 mph - N/A   Clear
8:56 PM 39.9 °F 35.8 °F 28.0 °F 63% 29.53 in 10.0 mi SE 5.8 mph - N/A   Clear
9:56 PM 37.0 °F 31.6 °F 28.0 °F 70% 29.53 in 10.0 mi ESE 6.9 mph - N/A   Partly Cloudy
10:56 PM 37.0 °F 31.0 °F 28.0 °F 70% 29.54 in 10.0 mi ESE 8.1 mph - N/A   Scattered Clouds
11:56 PM 36.0 °F 28.5 °F 27.0 °F 70% 29.53 in 10.0 mi ESE 10.4 mph - N/A   Clear